Terug naar catalogus

SL-8 DEB

ActiefLEO
NORAD 5301·DEBRIS·🇷🇺 Russia

Gelanceerd Apr 23, 1971 vanaf Plesetsk Cosmodrome

Loading…

Volgende Passages (komende 24 uur)

TLE

VersSource: Space-Track

Epoch: Sep 14, 2026, 10:29 UTC

1 05301U 71035D   26257.43746714  .00004381  00000-0  46027-3 0  9991
2 05301  74.0236  47.3170 0008735 192.0190 168.0785 14.89763458925220

Volg SL-8 DEB in realtime met AllMySat

Download on the App Store